• In Hungary
  • List of Countries
  • For 7 days
  • Water Temperature
  • Satellite Maps
  • Weather Map
  • News
  • Weather Widgets
  • user-avatar
    Login

    Hourly Weather Letunovka

    Today, 23 September, Sunday

    Time Temperature Precipitation Wind Pressure Humidity
    00:00 +18°C° 0 mm 4 mps 750 mmHg 67%
    01:00 +17°C° 0 mm 5 mps 749 mmHg 67%
    02:00 +16°C° 0 mm 5 mps 749 mmHg 68%
    03:00 +16°C° 0 mm 5 mps 748 mmHg 68%
    04:00 +16°C° 0 mm 5 mps 748 mmHg 69%
    05:00 +15°C° 0 mm 5 mps 747 mmHg 69%
    06:00 +15°C° 0 mm 6 mps 747 mmHg 70%
    07:00 +16°C° 0 mm 6 mps 746 mmHg 67%
    08:00 +17°C° 0 mm 7 mps 746 mmHg 63%
    09:00 +18°C° 0 mm 7 mps 746 mmHg 60%
    10:00 +21°C° 0 mm 7 mps 746 mmHg 57%
    11:00 +22°C° 0 mm 7 mps 746 mmHg 53%
    12:00 +23°C° 0 mm 7 mps 746 mmHg 50%
    13:00 +21°C° 0.4 mm 7 mps 746 mmHg 57%
    14:00 +18°C° 0.4 mm 7 mps 746 mmHg 65%
    15:00 +16°C° 0.4 mm 6 mps 745 mmHg 72%
    16:00 +15°C° 0.7 mm 6 mps 746 mmHg 76%
    17:00 +13°C° 0.7 mm 5 mps 746 mmHg 81%
    18:00 +10°C° 0.7 mm 5 mps 746 mmHg 85%
    19:00 +11°C° 0.6 mm 4 mps 746 mmHg 85%
    20:00 +11°C° 0.6 mm 4 mps 746 mmHg 85%
    21:00 +11°C° 0.6 mm 4 mps 747 mmHg 85%
    22:00 +10°C° 0.1 mm 3 mps 747 mmHg 86%
    23:00 +10°C° 0.1 mm 3 mps 747 mmHg 86%

    Tomorrow, 24 September, Monday

    Time Temperature Precipitation Wind Pressure Humidity
    00:00 +10°C° 0.1 mm 3 mps 747 mmHg 87%
    01:00 +10°C° 0 mm 3 mps 748 mmHg 88%
    02:00 +9°C° 0 mm 3 mps 748 mmHg 88%
    03:00 +9°C° 0 mm 3 mps 748 mmHg 89%
    04:00 +9°C° 0 mm 3 mps 748 mmHg 90%
    05:00 +8°C° 0 mm 3 mps 748 mmHg 91%
    06:00 +8°C° 0 mm 2 mps 748 mmHg 92%
    07:00 +9°C° 0 mm 2 mps 748 mmHg 87%
    08:00 +10°C° 0 mm 3 mps 748 mmHg 82%
    09:00 +12°C° 0 mm 3 mps 748 mmHg 76%
    10:00 +13°C° 0 mm 3 mps 748 mmHg 69%
    11:00 +14°C° 0 mm 3 mps 748 mmHg 61%
    12:00 +17°C° 0 mm 4 mps 748 mmHg 54%
    13:00 +17°C° 0 mm 4 mps 748 mmHg 53%
    14:00 +16°C° 0 mm 5 mps 747 mmHg 52%
    15:00 +16°C° 0 mm 5 mps 747 mmHg 50%
    16:00 +15°C° 0.1 mm 5 mps 746 mmHg 53%
    17:00 +15°C° 0.1 mm 5 mps 745 mmHg 57%
    18:00 +14°C° 0.1 mm 6 mps 745 mmHg 60%
    19:00 +14°C° 0.9 mm 6 mps 744 mmHg 64%
    20:00 +12°C° 0.9 mm 7 mps 743 mmHg 69%
    21:00 +12°C° 0.9 mm 8 mps 742 mmHg 73%
    22:00 +12°C° 0.7 mm 8 mps 741 mmHg 74%
    23:00 +12°C° 0.7 mm 9 mps 741 mmHg 74%

    Day after tomorrow, 25 September, Tuesday

    Time Temperature Precipitation Wind Pressure Humidity
    00:00 +11°C° 0.7 mm 9 mps 740 mmHg 74%
    01:00 +11°C° 0.8 mm 9 mps 740 mmHg 78%
    02:00 +11°C° 0.8 mm 8 mps 739 mmHg 81%
    03:00 +11°C° 0.8 mm 8 mps 739 mmHg 84%
    04:00 +10°C° 0.2 mm 7 mps 739 mmHg 83%
    05:00 +10°C° 0.2 mm 7 mps 739 mmHg 82%
    06:00 +9°C° 0.2 mm 6 mps 739 mmHg 81%
    07:00 +9°C° 0 mm 6 mps 740 mmHg 80%
    08:00 +9°C° 0 mm 6 mps 740 mmHg 78%
    09:00 +9°C° 0 mm 7 mps 741 mmHg 76%
    10:00 +10°C° 0 mm 7 mps 741 mmHg 74%
    11:00 +10°C° 0 mm 7 mps 742 mmHg 72%
    12:00 +10°C° 0 mm 7 mps 742 mmHg 69%
    13:00 +10°C° 0 mm 7 mps 742 mmHg 67%
    14:00 +10°C° 0 mm 7 mps 743 mmHg 66%
    15:00 +10°C° 0 mm 7 mps 743 mmHg 64%
    16:00 +10°C° 0 mm 7 mps 744 mmHg 64%
    17:00 +9°C° 0 mm 6 mps 744 mmHg 65%
    18:00 +9°C° 0 mm 6 mps 745 mmHg 66%
    19:00 +8°C° 0 mm 6 mps 745 mmHg 67%
    20:00 +8°C° 0 mm 5 mps 746 mmHg 68%
    21:00 +7°C° 0 mm 5 mps 746 mmHg 69%
    22:00 +7°C° 0 mm 5 mps 746 mmHg 71%
    23:00 +7°C° 0 mm 5 mps 747 mmHg 73%

    26 September, Wednesday

    Time Temperature Precipitation Wind Pressure Humidity
    00:00 +6°C° 0 mm 5 mps 747 mmHg 74%
    01:00 +6°C° 0 mm 5 mps 748 mmHg 76%
    02:00 +6°C° 0 mm 5 mps 748 mmHg 77%
    03:00 +6°C° 0 mm 5 mps 749 mmHg 78%
    04:00 +6°C° 0.1 mm 5 mps 749 mmHg 79%
    05:00 +6°C° 0.1 mm 5 mps 750 mmHg 80%
    06:00 +6°C° 0.1 mm 5 mps 750 mmHg 80%
    07:00 +6°C° 0.1 mm 5 mps 751 mmHg 78%
    08:00 +6°C° 0.1 mm 5 mps 751 mmHg 76%
    09:00 +6°C° 0.1 mm 5 mps 752 mmHg 74%
    10:00 +6°C° 0.1 mm 5 mps 753 mmHg 71%
    11:00 +7°C° 0.1 mm 5 mps 753 mmHg 68%
    12:00 +7°C° 0.1 mm 5 mps 754 mmHg 65%
    13:00 +7°C° 0 mm 5 mps 754 mmHg 62%
    14:00 +8°C° 0 mm 5 mps 754 mmHg 59%
    15:00 +8°C° 0 mm 4 mps 755 mmHg 56%
    16:00 +8°C° 0 mm 4 mps 755 mmHg 58%
    17:00 +8°C° 0 mm 3 mps 755 mmHg 60%
    18:00 +7°C° 0 mm 2 mps 756 mmHg 61%
    19:00 +7°C° 0 mm 2 mps 756 mmHg 63%
    20:00 +6°C° 0 mm 2 mps 756 mmHg 64%
    21:00 +5°C° 0 mm 2 mps 756 mmHg 65%
    22:00 +5°C° 0 mm 2 mps 756 mmHg 67%
    23:00 +4°C° 0 mm 3 mps 756 mmHg 69%

    27 September, Thursday

    Time Temperature Precipitation Wind Pressure Humidity
    00:00 +4°C° 0 mm 3 mps 756 mmHg 71%
    01:00 +4°C° 0 mm 3 mps 756 mmHg 73%
    02:00 +3°C° 0 mm 3 mps 755 mmHg 75%
    03:00 +3°C° 0 mm 3 mps 755 mmHg 77%
    04:00 +3°C° 0 mm 4 mps 755 mmHg 76%
    05:00 +3°C° 0 mm 4 mps 754 mmHg 75%
    06:00 +2°C° 0 mm 5 mps 754 mmHg 75%
    07:00 +4°C° 0 mm 6 mps 753 mmHg 69%
    08:00 +5°C° 0 mm 7 mps 753 mmHg 63%
    09:00 +6°C° 0 mm 8 mps 752 mmHg 57%
    10:00 +7°C° 0.1 mm 8 mps 751 mmHg 55%
    11:00 +7°C° 0.1 mm 9 mps 751 mmHg 54%
    12:00 +8°C° 0.1 mm 9 mps 750 mmHg 52%
    13:00 +7°C° 0.7 mm 9 mps 749 mmHg 56%
    14:00 +7°C° 0.7 mm 9 mps 749 mmHg 61%
    15:00 +7°C° 0.7 mm 9 mps 748 mmHg 65%
    16:00 +7°C° 0.6 mm 8 mps 748 mmHg 68%
    17:00 +6°C° 0.6 mm 8 mps 747 mmHg 71%
    18:00 +6°C° 0.6 mm 8 mps 747 mmHg 73%
    19:00 +6°C° 0.1 mm 8 mps 747 mmHg 76%
    20:00 +6°C° 0.1 mm 8 mps 747 mmHg 78%
    21:00 +6°C° 0.1 mm 7 mps 747 mmHg 80%
    22:00 +8°C° 0 mm 7 mps 747 mmHg 81%
    23:00 +8°C° 0 mm 6 mps 747 mmHg 83%

    28 September, Friday

    Time Temperature Precipitation Wind Pressure Humidity
    00:00 +8°C° 0 mm 6 mps 746 mmHg 84%
    01:00 +7°C° 0 mm 6 mps 747 mmHg 85%
    02:00 +7°C° 0 mm 5 mps 747 mmHg 87%
    03:00 +7°C° 0 mm 5 mps 747 mmHg 88%
    04:00 +6°C° 0 mm 5 mps 747 mmHg 89%
    05:00 +6°C° 0 mm 5 mps 747 mmHg 90%
    06:00 +6°C° 0 mm 4 mps 747 mmHg 92%
    07:00 +7°C° 0 mm 5 mps 747 mmHg 86%
    08:00 +8°C° 0 mm 5 mps 748 mmHg 80%
    09:00 +9°C° 0 mm 5 mps 748 mmHg 74%
    10:00 +10°C° 0 mm 6 mps 748 mmHg 68%
    11:00 +11°C° 0 mm 6 mps 748 mmHg 61%
    12:00 +14°C° 0 mm 7 mps 748 mmHg 54%
    13:00 +13°C° 0 mm 6 mps 747 mmHg 58%
    14:00 +13°C° 0 mm 6 mps 747 mmHg 62%
    15:00 +11°C° 0 mm 6 mps 746 mmHg 66%
    16:00 +11°C° 0.7 mm 6 mps 746 mmHg 70%
    17:00 +11°C° 0.7 mm 6 mps 745 mmHg 75%
    18:00 +11°C° 0.7 mm 6 mps 745 mmHg 80%
    19:00 +10°C° 0.2 mm 6 mps 745 mmHg 82%
    20:00 +9°C° 0.2 mm 6 mps 746 mmHg 83%
    21:00 +9°C° 0.2 mm 6 mps 746 mmHg 84%
    22:00 +8°C° 0 mm 5 mps 747 mmHg 86%
    23:00 +7°C° 0 mm 4 mps 748 mmHg 87%
    Show more